Regional Weather Roundup
Issued by NWS

Home | Current Version | Previous Version | Graphics & Text | Print | Product List | Glossary On
Versions: 1 2 3 4 5 6 7 8 9 10 11 12 13 14 15 16 17 18 19 20 21 22 23 24 25 26 27 28 29 30 31 32 33 34 35 36 37 38 39 40 41 42 43 44 45 46 47 48 49 50
000
ASUS43 KMKX 222311
RWRWI

WISCONSIN REGIONAL WEATHER ROUNDUP
NATIONAL WEATHER SERVICE MILWAUKEE/SULLIVAN WI
600 PM CDT FRI AUG 22 2014

NOTE: "FAIR" INDICATES FEW OR NO CLOUDS BELOW 12,000 FEET WITH NO
SIGNIFICANT WEATHER AND/OR OBSTRUCTIONS TO VISIBILITY.

WIZ001-002-006>008-014>016-023>028-230000-
NORTHWEST WISCONSIN

CITY           SKY/WX    TMP DP  RH WIND       PRES   REMARKS
SUPERIOR ARPT  CLOUDY    63  60  92 NE5       30.03R
ASHLAND        CLOUDY    66  62  87 N9        30.02R
HAYWARD        CLOUDY    71  67  87 N8        30.01R
SIREN          CLOUDY    72  67  85 N5        30.01R
RICE LAKE      CLOUDY    74  68  82 N7        30.00R
LADYSMITH      SUNNY     78  70  76 N7        29.99R HX  80
EAU CLAIRE     PTSUNNY   83  72  69 N9        29.94R HX  88
MENOMONIE      CLEAR     82  69  65 W8        29.96R HX  85
NEW RICHMOND   CLOUDY    73  69  86 N5        29.99S
OSCEOLA        CLOUDY    74  71  91 NW3       30.02R
$$

WIZ003>005-009-010-017-018-230000-
NORTH CENTRAL WISCONSIN

CITY           SKY/WX    TMP DP  RH WIND       PRES   REMARKS
WOODRUFF       CLOUDY    77  71  82 N3        30.00R
RHINELANDER    CLOUDY    73  69  87 S5        30.01R
EAGLE RIVER    LGT RAIN  72  71  98 CALM      30.00S
LAND O LAKES   CLOUDY    70  69  97 E3        30.01S FOG
PHILLIPS       CLOUDY    73  70  90 N5        29.98S
TOMAHAWK       PTSUNNY   74  69  86 CALM      30.00R
MEDFORD        MOSUNNY   77  73  86 N7        29.97R
MERRILL        CLOUDY    74  72  95 E6        29.98S
$$

WIZ029-030-035-036-043>047-230000-
CENTRAL WISCONSIN

CITY           SKY/WX    TMP DP  RH WIND       PRES   REMARKS
WAUSAU         SUNNY     82  72  71 NW6       29.95R HX  87
MOSINEE        MOSUNNY   81  75  83 CALM      29.97R HX  86
MARSHFIELD     MOSUNNY   82  72  71 CALM      29.95S HX  87
STEVENS POINT  MOSUNNY   82  72  70 W5        29.95S HX  87
WAUPACA        PTSUNNY   78  74  86 CALM      29.95R HX  81
WAUTOMA        SUNNY     89  75  63 CALM      29.93R HX  98
WISC RAPIDS    SUNNY     85  73  67 W5        29.95S HX  91
CAMP DOUGLAS   SUNNY     83  79  87 NW5       29.93S HX  95
$$

WIZ011>013-019>022-031-037>040-048>050-230000-
NORTHEAST WISCONSIN

CITY           SKY/WX    TMP DP  RH WIND       PRES   REMARKS
ANTIGO         CLOUDY    73  71  93 E3        29.99S FOG
STURGEON BAY   SUNNY     73  68  83 SE7       29.98F
GREEN BAY      CLOUDY    80  73  79 E8        29.95S HX  84
MANITOWOC      FOG       70  68  94 SE6       29.98R VSB 1/4
APPLETON       PTSUNNY   82  72  69 E6        29.95  HX  87
CLINTONVILLE   PTSUNNY   81  72  74 E6        29.94R HX  84
OSHKOSH        MOSUNNY   83  75  77 E10       29.94R HX  90
$$

WIZ032>034-041-042-053>061-230000-
SOUTHWEST WISCONSIN

CITY           SKY/WX    TMP DP  RH WIND       PRES   REMARKS
LA CROSSE      MOSUNNY   87  73  62 W5        29.92R HX  94
SPARTA         SUNNY     85  72  64 SW5       29.94R HX  90
VIROQUA        MOCLDY    85  75  73 N3        29.95S HX  93
BOSCOBEL       MOSUNNY   90  73  57 W3        29.91R HX  98
PRAIRIE DU CHI PTSUNNY   87  72  59 CALM      29.90S HX  93
PLATTEVILLE    FAIR      85  77  75 CALM      29.94S HX  95
$$

WIZ056-057-062-063-064-067-068-230000-
SOUTH CENTRAL WISCONSIN

CITY           SKY/WX    TMP DP  RH WIND       PRES   REMARKS
BARABOO/DELLS  SUNNY     88  69  53 CALM      29.93S HX  92
LONE ROCK      MOSUNNY   93  73  52 NW5       29.91S HX 102
WATERTOWN      PTSUNNY   86  75  68 CALM      29.92S HX  94
MADISON        MOSUNNY   89  73  59 N6        29.92S HX  97
MIDDLETON      FAIR      89  71  56 CALM      29.93S HX  95
MONROE         SUNNY     82  75  78 SW3       29.94S HX  89
JANESVILLE     MOSUNNY   86  73  66 SW6       29.92S HX  93
$$

WIZ051-052-058>065-066-070>072-230000-
SOUTHEAST WISCONSIN

CITY           SKY/WX    TMP DP  RH WIND       PRES   REMARKS
MILWAUKEE      PTSUNNY   73  69  87 E7        29.96R
WAUKESHA       MOSUNNY   81  72  74 E8        29.95S HX  84
MILWAUKEE/TIMM SUNNY     77  68  73 E7        29.96R
RACINE         SUNNY     77  71  82 E7        29.97R
BURLINGTON     CLOUDY    82  74  78 E6        29.94R HX  88
KENOSHA        SUNNY     79  72  79 E10       29.95R HX  82
FOND DU LAC    PTSUNNY   82  74  76 E12       29.94R HX  88
SHEBOYGAN      SUNNY     74  70  87 E8        29.96S
WEST BEND      MOSUNNY   77  68  73 E6        29.96S
JUNEAU         MOSUNNY   85  70  59 CALM      29.94S HX  90
$$

LSZ147-162-230000-
LAKE SUPERIOR

STATION/POSITION TIME  TEMP    WIND        PRES    WAVE
                       AIR SEA DIR/SP/G            HT/PER
                 (UTC) (F)     (DEG/KT/KT) (MB)    (FT/S)
W MID LAKE BUOY  2250   58 58   30/ 12/ 14 1015.7R   1/ 3
DEVILS ISLAND    2200   60      50/  9/ 10 1016.3R
PORT WING        2200   60      20/  7/  8 1016.6
SAXON HARBOR     2200   62      20/  5/  6 1015.9S
$$

LMZ867-665-643>646-230000-
LAKE MICHIGAN

STATION/POSITION TIME  TEMP    WIND        PRES    WAVE
                       AIR SEA DIR/SP/G            HT/PER
                 (UTC) (F)     (DEG/KT/KT) (MB)    (FT/S)
N MID LAKE BUOY  2250   68 67   70/  6/  8 1015.3R   0
NORTHPORT PIER   2200   67     130/  4/  7 1015.6R
SISTER BAY       2126   80     100/ 10/ 13   N/A
KEWAUNEE LAKESHO 2200   69      80/  4/  6 1014.2R
SHEBOYGAN LAKESH 2300   68 65   60/  5/  5 1014.8R
ATWATER BUOY     2300   70      40/  6/  6 1015.5R
MILWAUKEE LAKESH 2200   69      40/ 10/ 10   N/A
S MID LAKE BUOY  2250   72 71   80/  6/  6 1014.1R   0
KENOSHA   LAKESH 2300   74      80/  7/  8 1013.5R
$$

TC  - TEMPERATURE IN CELSIUS
VSB - VISIBILITY IN STATUTE MILES
WCI - WIND CHILL INDEX
HX  - HEAT INDEX




USA.gov is the U.S. government's official web portal to all federal, state and local government web resources and services.